Location: Lone Wolf Observatory
(41.0360°N, 89.2260°W)
Time: 08:26:55
(UTC-05:00)

Amateur Radio Satellites - All Passes

Search period start: 16 August 2017 07:56
Search period end: 17 August 2017 07:56
Location: Lone Wolf Observatory, 41.0360°N, 89.2260°W

Satellite Date Start Highest point End Downlink Frequencies (MHz)
Time Altitude Azimuth
AAUSAT CUBESAT 2 16 Aug 07:58:25 08:00:41 14° 91° (E) 08:02:57 437.432
STRAND 1 16 Aug 08:12:18 08:17:06 40° 262° (W) 08:21:55 437.568
KAITUO 1B 16 Aug 08:16:17 08:19:01 19° 292° (WNW) 08:21:45 145.475/437.950
XW-2A 16 Aug 08:16:42 08:19:56 41° 99° (E) 08:23:10 145.665 - 145.685
LilacSat-2 16 Aug 08:18:49 08:20:52 14° 294° (WNW) 08:22:53 437.200
SO-50 16 Aug 08:20:01 08:23:24 20° 43° (NE) 08:26:50 436.795
CUBEBUG 2 16 Aug 08:22:21 08:26:24 48° 99° (E) 08:30:30 437.445
UWE-3 16 Aug 08:26:46 08:30:32 31° 97° (E) 08:34:20 435.000/436.395/437.385
HO-68 16 Aug 08:26:59 08:34:12 83° 106° (ESE) 08:41:21 435.675
SEEDS 16 Aug 08:30:15 08:34:32 76° 103° (ESE) 08:38:47 437.485
XW-2D 16 Aug 08:31:00 08:31:52 11° 296° (WNW) 08:32:45 145.860 - 145.880
AO-85 16 Aug 08:41:33 08:43:40 14° 318° (NW) 08:45:48 145.980
UNISAT 6 16 Aug 08:47:10 08:49:06 13° 63° (ENE) 08:51:02 437.425
BEESAT 2 16 Aug 08:52:58 08:55:55 19° 315° (NW) 08:58:54 435.950
PRISM 16 Aug 08:56:53 08:58:09 11° 62° (ENE) 08:59:24 437.425
FO-29 16 Aug 08:57:17 09:04:44 53° 70° (ENE) 09:11:39 435.910
Oscar 11 16 Aug 08:59:04 09:02:44 26° 95° (E) 09:06:23 .
CUTE 1.7 + AOD 2 16 Aug 09:08:04 09:11:39 26° 291° (WNW) 09:15:14 437.475
ZACube-1 16 Aug 09:18:31 09:22:44 66° 101° (ESE) 09:27:01 437.345
TIGRISAT 16 Aug 09:21:52 09:25:32 27° 69° (ENE) 09:29:10 435.000
AAUSAT CUBESAT 2 16 Aug 09:32:22 09:36:23 46° 287° (WNW) 09:40:22 437.432
NO-84 16 Aug 09:32:53 09:35:35 26° 34° (NE) 09:38:28 435.350 FM
PCSat 16 Aug 09:37:36 09:43:01 73° 244° (WSW) 09:48:24 145.827
AO-73 16 Aug 09:43:03 09:47:17 73° 285° (WNW) 09:51:35 145.935
XW-2A 16 Aug 09:51:23 09:52:16 11° 294° (WNW) 09:53:10 145.665 - 145.685
DELFI C3 16 Aug 09:52:33 09:55:46 23° 95° (E) 09:58:57 145.870
SO-50 16 Aug 09:59:43 10:04:11 56° 242° (WSW) 10:08:42 436.795
CUBEBUG 2 16 Aug 10:00:22 10:02:38 14° 295° (WNW) 10:04:55 437.445
UWE-3 16 Aug 10:03:36 10:06:49 22° 292° (WNW) 10:10:05 435.000/436.395/437.385
SEEDS 16 Aug 10:08:58 10:09:34 10° 298° (WNW) 10:10:11 437.485
HO-68 16 Aug 10:16:09 10:21:05 20° 304° (NW) 10:26:00 435.675
EO-88 16 Aug 10:18:53 10:22:02 26° 96° (E) 10:25:10 145.990 - 145.960
UNISAT 6 16 Aug 10:20:57 10:25:18 61° 258° (WSW) 10:29:36 437.425
M-CUBED/EXP-1 PRIME 16 Aug 10:22:31 10:26:14 27° 62° (ENE) 10:30:06 437.505
AIST 2D 16 Aug 10:25:34 10:27:17 13° 67° (ENE) 10:29:00 435.315
PRISM 16 Aug 10:28:42 10:32:50 67° 258° (WSW) 10:37:00 437.425
Oscar 11 16 Aug 10:35:07 10:38:48 27° 291° (WNW) 10:42:28 .
O/OREOS (USA 219) 16 Aug 10:35:49 10:40:07 50° 107° (ESE) 10:44:27 437.305
QB50P2 16 Aug 10:42:31 10:44:27 13° 63° (ENE) 10:46:21 145.880/145.840
FO-29 16 Aug 10:43:06 10:49:52 32° 265° (W) 10:56:15 435.910
EO-79 16 Aug 10:45:19 10:47:07 13° 63° (ENE) 10:48:55 145.935-145.965
Max Valier Satellite 16 Aug 10:46:11 10:49:53 82° 102° (ESE) 10:53:35 145.860
RS-15 16 Aug 10:55:20 11:05:18 31° 103° (ESE) 11:15:21 29.354- 29.394
ZACube-1 16 Aug 10:57:04 10:58:29 11° 297° (WNW) 10:59:55 437.345
TIGRISAT 16 Aug 10:58:27 11:02:09 26° 264° (W) 11:05:49 435.000
NO-84 16 Aug 11:10:03 11:13:00 31° 228° (SW) 11:16:10 435.350 FM
ISS 16 Aug 11:16:39 11:18:42 16° 131° (SE) 11:20:45 437.550
DUCHIFAT 1 16 Aug 11:20:08 11:23:27 23° 68° (ENE) 11:26:48 145.980
DELFI C3 16 Aug 11:27:08 11:30:28 26° 291° (WNW) 11:33:47 145.870
nSIGHT-1 16 Aug 11:31:04 11:33:42 23° 134° (SE) 11:36:21 .
Tancredo 1 16 Aug 11:34:55 11:37:51 86° 327° (NNW) 11:40:46 437.200
BUGSAT 1 16 Aug 11:43:35 11:45:07 12° 63° (ENE) 11:46:38 437.445
EO-88 16 Aug 11:52:52 11:55:31 19° 292° (WNW) 11:58:10 145.990 - 145.960
M-CUBED/EXP-1 PRIME 16 Aug 11:56:35 12:00:28 31° 259° (W) 12:04:34 437.505
AIST 2D 16 Aug 11:56:57 12:00:09 35° 262° (W) 12:03:23 435.315
POLYITAN 1 16 Aug 12:00:43 12:04:55 86° 81° (E) 12:09:09 437.675
NANOSAT C BR1 16 Aug 12:01:08 12:05:19 78° 77° (ENE) 12:09:31 145.865
LO-87 16 Aug 12:05:50 12:09:23 76° 103° (ESE) 12:12:54 145.935 - 145.965
QB50P2 16 Aug 12:15:35 12:19:44 58° 259° (W) 12:23:54 145.880/145.840
O/OREOS (USA 219) 16 Aug 12:16:52 12:19:50 17° 305° (NW) 12:22:48 437.305
EO-79 16 Aug 12:18:12 12:22:22 60° 259° (W) 12:26:32 145.935-145.965
ESTCUBE 1 16 Aug 12:22:34 12:27:07 67° 102° (ESE) 12:31:37 437.505/2401.250
ISS 16 Aug 12:51:37 12:54:51 58° 327° (NNW) 12:58:06 437.550
VELOX 1 16 Aug 12:52:50 12:56:38 27° 96° (E) 13:00:23 145.980
DUCHIFAT 1 16 Aug 12:55:21 12:58:59 28° 264° (W) 13:02:38 145.980
RS-15 16 Aug 13:04:21 13:16:37 78° 304° (NW) 13:29:04 29.354- 29.394
nSIGHT-1 16 Aug 13:06:49 13:09:56 41° 331° (NNW) 13:13:03 .
Tancredo 1 16 Aug 13:11:28 13:13:27 16° 342° (NNW) 13:15:25 437.200
DX 1 16 Aug 13:12:59 13:14:52 12° 91° (E) 13:16:43 434.975-435.025
BUGSAT 1 16 Aug 13:15:53 13:19:58 60° 259° (W) 13:24:01 437.445
Oscar 19 16 Aug 13:16:35 13:21:35 56° 72° (ENE) 13:26:38 437.125/150
SPROUT 16 Aug 13:40:06 13:44:19 68° 286° (WNW) 13:48:31 437.525
50 SAT 16 Aug 13:45:34 13:48:46 38° 99° (E) 13:51:56 437.505
Gurwin Techsat 1B 16 Aug 13:48:07 13:53:24 72° 74° (ENE) 13:58:43 435.225
BEESAT 3 16 Aug 13:54:57 13:55:29 10° 37° (NE) 13:56:02 437.485
ESTCUBE 1 16 Aug 14:01:15 14:03:20 13° 298° (WNW) 14:05:26 437.505/2401.250
AO-7 16 Aug 14:11:26 14:18:33 33° 57° (ENE) 14:25:41 .
ITAMSAT 1 16 Aug 14:26:31 14:30:11 20° 62° (ENE) 14:33:50 435.822/435.867
VELOX 1 16 Aug 14:29:15 14:32:59 27° 292° (WNW) 14:36:41 145.980
ISS 16 Aug 14:29:40 14:31:52 16° 346° (NNW) 14:34:03 437.550
UKube-1 16 Aug 14:36:09 14:40:29 70° 103° (ESE) 14:44:46 .
nSIGHT-1 16 Aug 14:45:03 14:46:58 15° 350° (N) 14:48:54 .
DX 1 16 Aug 14:47:06 14:51:24 57° 286° (WNW) 14:55:39 434.975-435.025
Tancredo 1 16 Aug 14:48:52 14:49:37 11° 2° (N) 14:50:21 437.200
Oscar 19 16 Aug 14:57:54 15:01:14 17° 268° (W) 15:04:36 437.125/150
MOZHAYETS 4 16 Aug 15:13:25 15:16:12 16° 92° (E) 15:18:59
ITUPSAT 1 16 Aug 15:14:47 15:18:13 19° 93° (E) 15:21:36 437.325
50 SAT 16 Aug 15:19:50 15:21:05 12° 295° (WNW) 15:22:19 437.505
RS-15 16 Aug 15:21:02 15:31:31 31° 332° (NNW) 15:41:59 29.354- 29.394
AO-85 16 Aug 15:29:23 15:33:35 53° 55° (NE) 15:38:05 145.980
BEESAT 3 16 Aug 15:29:47 15:33:48 74° 58° (ENE) 15:37:43 437.485
Gurwin Techsat 1B 16 Aug 15:31:10 15:33:51 14° 270° (W) 15:36:33 435.225
BEESAT 2 16 Aug 15:31:55 15:35:27 27° 49° (NE) 15:38:55 435.950
AO-7 16 Aug 16:02:35 16:10:50 61° 256° (WSW) 16:19:07 .
ITAMSAT 1 16 Aug 16:04:06 16:09:12 54° 259° (W) 16:14:19 435.822/435.867
DOVE 4 16 Aug 16:05:24 16:07:55 14° 61° (ENE) 16:10:25 437.250
ISS 16 Aug 16:07:37 16:09:21 14° 6° (N) 16:11:06 437.550
UKube-1 16 Aug 16:14:26 16:15:54 12° 299° (WNW) 16:17:22 .
BEESAT 16 Aug 16:20:35 16:25:22 88° 279° (W) 16:30:08 436.000
nSIGHT-1 16 Aug 16:22:29 16:24:23 14° 10° (N) 16:26:17 .
Tancredo 1 16 Aug 16:23:27 16:25:43 20° 22° (NNE) 16:27:59 437.200
YUBILEINY 16 Aug 16:23:52 16:32:23 57° 91° (E) 16:40:53 435.215
MOZHAYETS 4 16 Aug 16:49:10 16:53:37 50° 287° (WNW) 16:58:04
ITUPSAT 1 16 Aug 16:51:41 16:56:13 44° 289° (WNW) 17:00:44 437.325
CUBESAT XI-V 16 Aug 16:55:31 16:59:56 38° 98° (E) 17:04:17 437.345
BEESAT 2 16 Aug 17:09:40 17:13:09 28° 246° (WSW) 17:16:35 435.950
AO-85 16 Aug 17:10:50 17:13:40 17° 249° (WSW) 17:16:36 145.980
HO-68 16 Aug 17:13:21 17:15:42 12° 49° (NE) 17:18:03 435.675
KAITUO 1B 16 Aug 17:22:57 17:24:52 14° 66° (ENE) 17:26:48 145.475/437.950
LilacSat-2 16 Aug 17:25:29 17:28:21 21° 69° (ENE) 17:31:14 437.200
XW-2D 16 Aug 17:35:42 17:38:51 26° 70° (ENE) 17:42:02 145.860 - 145.880
KKS-1 16 Aug 17:36:39 17:40:55 44° 99° (E) 17:45:08 437.445
CUTE-I 16 Aug 17:37:38 17:42:21 33° 67° (ENE) 17:47:06 437.470
DOVE 4 16 Aug 17:39:33 17:44:52 84° 260° (W) 17:50:09 437.250
RS-15 16 Aug 17:40:26 17:49:35 23° 8° (N) 17:58:30 29.354- 29.394
ISS 16 Aug 17:43:39 17:46:37 31° 26° (NNE) 17:49:33 437.550
XW-2B 16 Aug 17:46:19 17:49:42 34° 72° (ENE) 17:53:07 145.730 - 145.750
Tancredo 1 16 Aug 17:58:18 18:01:09 56° 220° (SW) 18:04:00 437.200
nSIGHT-1 16 Aug 17:58:20 18:01:26 40° 30° (NNE) 18:04:30 .
NUDT-PHONESAT 16 Aug 18:01:36 18:05:00 38° 73° (ENE) 18:08:26 437.300
BEESAT 16 Aug 18:01:38 18:02:22 10° 301° (WNW) 18:03:06 436.000
XW-2C 16 Aug 18:04:46 18:08:27 60° 75° (ENE) 18:12:10 145.795 - 145.815
XW-2F 16 Aug 18:21:03 18:24:46 88° 257° (WSW) 18:28:32 145.980 - 146.000
YUBILEINY 16 Aug 18:21:58 18:29:35 32° 291° (WNW) 18:37:13 435.215
CUTE 1.7 + AOD 2 16 Aug 18:25:14 18:28:13 19° 66° (ENE) 18:31:13 437.475
STARS 16 Aug 18:29:13 18:33:35 69° 102° (ESE) 18:37:54 437.465
CUBESAT XI-V 16 Aug 18:33:23 18:37:02 23° 294° (WNW) 18:40:41 437.345
XW-2A 16 Aug 18:48:59 18:50:47 14° 67° (ENE) 18:52:36 145.665 - 145.685
HO-68 16 Aug 18:54:59 19:01:59 60° 69° (ENE) 19:09:00 435.675
KAITUO 1B 16 Aug 18:55:02 18:58:31 39° 262° (W) 19:02:02 145.475/437.950
LilacSat-2 16 Aug 18:59:20 19:02:29 25° 264° (W) 19:05:41 437.200
O/OREOS (USA 219) 16 Aug 19:08:38 19:10:10 11° 51° (NE) 19:11:42 437.305
XW-2D 16 Aug 19:10:15 19:13:01 20° 266° (W) 19:15:49 145.860 - 145.880
KKS-1 16 Aug 19:14:08 19:17:06 18° 296° (WNW) 19:20:03 437.445
CUTE-I 16 Aug 19:17:34 19:22:20 32° 264° (W) 19:27:08 437.470
ISS 16 Aug 19:20:06 19:23:06 34° 223° (SW) 19:26:04 437.550
CUBEBUG 2 16 Aug 19:20:08 19:24:11 39° 72° (ENE) 19:28:09 437.445
SEEDS 16 Aug 19:21:23 19:25:25 48° 73° (ENE) 19:29:30 437.485
XW-2B 16 Aug 19:21:44 19:24:00 15° 268° (W) 19:26:16 145.730 - 145.750
UWE-3 16 Aug 19:23:52 19:27:20 25° 69° (ENE) 19:30:45 435.000/436.395/437.385
nSIGHT-1 16 Aug 19:35:02 19:37:39 23° 226° (SW) 19:40:16 .
NUDT-PHONESAT 16 Aug 19:37:18 19:39:04 13° 268° (W) 19:40:49 437.300
Oscar 11 16 Aug 19:54:05 19:57:14 20° 67° (ENE) 20:00:24 .
RS-15 16 Aug 19:55:03 20:06:31 44° 41° (NE) 20:17:24 29.354- 29.394
CUTE 1.7 + AOD 2 16 Aug 19:59:52 20:03:46 36° 263° (W) 20:07:43 437.475
STARS 16 Aug 20:07:45 20:09:19 12° 299° (WNW) 20:10:53 437.465
ZACube-1 16 Aug 20:14:02 20:18:03 48° 73° (ENE) 20:22:04 437.345
XW-2A 16 Aug 20:20:19 20:23:15 29° 263° (W) 20:26:13 145.665 - 145.685
AAUSAT CUBESAT 2 16 Aug 20:21:33 20:25:41 76° 258° (WSW) 20:29:53 437.432
STRAND 1 16 Aug 20:22:23 20:27:29 69° 102° (ESE) 20:32:33 437.568
AO-73 16 Aug 20:38:04 20:42:14 83° 76° (ENE) 20:46:23 145.935
DELFI C3 16 Aug 20:38:43 20:40:50 14° 65° (ENE) 20:42:57 145.870
HO-68 16 Aug 20:44:23 20:50:06 25° 266° (W) 20:55:51 435.675
O/OREOS (USA 219) 16 Aug 20:45:40 20:50:13 85° 248° (WSW) 20:54:46 437.305
EO-88 16 Aug 20:58:00 20:59:30 12° 65° (ENE) 21:01:00 145.990 - 145.960
CUBEBUG 2 16 Aug 20:58:02 21:00:56 17° 267° (W) 21:03:48 437.445
SEEDS 16 Aug 20:59:14 21:01:23 14° 269° (W) 21:03:32 437.485
UWE-3 16 Aug 21:00:05 21:03:42 26° 264° (W) 21:07:16 435.000/436.395/437.385
Max Valier Satellite 16 Aug 21:24:51 21:28:08 32° 72° (ENE) 21:31:26 145.860
Oscar 11 16 Aug 21:29:11 21:33:07 35° 263° (W) 21:37:06 .
ZACube-1 16 Aug 21:52:33 21:54:36 13° 269° (W) 21:56:38 437.345
FO-29 16 Aug 21:53:09 21:58:30 38° 96° (E) 22:03:24 435.910
STRAND 1 16 Aug 22:03:11 22:06:04 15° 299° (WNW) 22:08:57 437.568
RS-15 16 Aug 22:07:52 22:19:39 65° 246° (WSW) 22:30:47 29.354- 29.394
PRISM 16 Aug 22:11:11 22:13:47 16° 93° (E) 22:16:22 437.425
DELFI C3 16 Aug 22:11:21 22:15:11 46° 261° (W) 22:19:03 145.870
UNISAT 6 16 Aug 22:12:50 22:16:26 26° 96° (E) 22:20:03 437.425
EO-88 16 Aug 22:29:17 22:32:45 43° 261° (W) 22:36:14 145.990 - 145.960
PCSat 16 Aug 22:38:39 22:41:26 14° 103° (ESE) 22:44:13 145.827
LO-87 16 Aug 22:41:43 22:44:50 28° 71° (ENE) 22:47:57 145.935 - 145.965
TIGRISAT 16 Aug 22:48:52 22:53:06 60° 101° (E) 22:57:22 435.000
Max Valier Satellite 16 Aug 22:59:56 23:02:04 15° 267° (W) 23:04:13 145.860
ESTCUBE 1 16 Aug 23:21:36 23:26:01 59° 73° (ENE) 23:30:28 437.505/2401.250
AIST 2D 16 Aug 23:22:36 23:24:49 16° 93° (E) 23:27:02 435.315
M-CUBED/EXP-1 PRIME 16 Aug 23:35:50 23:38:58 19° 97° (E) 23:41:58 437.505
FO-29 16 Aug 23:38:36 23:43:24 27° 297° (WNW) 23:47:51 435.910
PRISM 16 Aug 23:45:20 23:49:13 40° 289° (WNW) 23:53:03 437.425
POLYITAN 1 16 Aug 23:47:05 23:49:14 14° 92° (E) 23:51:22 437.675
NANOSAT C BR1 16 Aug 23:47:22 23:49:03 12° 91° (E) 23:50:43 145.865
UNISAT 6 16 Aug 23:49:28 23:53:05 27° 291° (WNW) 23:56:43 437.425
VELOX 1 16 Aug 23:49:55 23:53:33 25° 67° (ENE) 23:57:11 145.980
QB50P2 17 Aug 00:00:57 00:04:14 22° 94° (E) 00:07:30 145.880/145.840
EO-79 17 Aug 00:03:26 00:06:39 21° 94° (E) 00:09:51 145.935-145.965
DX 1 17 Aug 00:09:00 00:10:41 12° 61° (ENE) 00:12:24 434.975-435.025
SO-50 17 Aug 00:13:35 00:17:54 47° 118° (ESE) 00:22:14 436.795
LO-87 17 Aug 00:15:52 00:18:17 17° 266° (W) 00:20:42 145.935 - 145.965
50 SAT 17 Aug 00:17:31 00:19:27 14° 67° (ENE) 00:21:22 437.505
PCSat 17 Aug 00:18:42 00:24:07 77° 300° (WNW) 00:29:35 145.827
RS-15 17 Aug 00:25:19 00:29:23 12° 267° (W) 00:33:23 29.354- 29.394
TIGRISAT 17 Aug 00:27:24 00:29:18 13° 297° (WNW) 00:31:12 435.000
SPROUT 17 Aug 00:32:41 00:36:57 87° 71° (ENE) 00:41:14 437.525
DUCHIFAT 1 17 Aug 00:38:39 00:42:37 41° 99° (E) 00:46:34 145.980
AIST 2D 17 Aug 00:54:57 00:58:04 29° 288° (WNW) 01:01:11 435.315
BUGSAT 1 17 Aug 00:58:26 01:01:12 18° 94° (E) 01:03:57 437.445
ESTCUBE 1 17 Aug 01:01:06 01:03:11 13° 270° (W) 01:05:16 437.505/2401.250
M-CUBED/EXP-1 PRIME 17 Aug 01:09:20 01:13:33 41° 294° (WNW) 01:17:31 437.505
NANOSAT C BR1 17 Aug 01:20:59 01:25:04 54° 287° (WNW) 01:29:09 145.865
POLYITAN 1 17 Aug 01:21:13 01:25:16 48° 287° (WNW) 01:29:19 437.675
VELOX 1 17 Aug 01:25:55 01:29:51 30° 263° (W) 01:33:48 145.980
Oscar 19 17 Aug 01:29:03 01:32:48 20° 93° (E) 01:36:33 437.125/150
UKube-1 17 Aug 01:30:03 01:34:17 57° 73° (ENE) 01:38:33 .
QB50P2 17 Aug 01:36:20 01:40:02 30° 290° (WNW) 01:43:43 145.880/145.840
EO-79 17 Aug 01:38:43 01:42:26 31° 290° (WNW) 01:46:08 145.935-145.965
DX 1 17 Aug 01:41:55 01:46:16 69° 257° (WSW) 01:50:40 434.975-435.025
50 SAT 17 Aug 01:48:46 01:51:50 31° 262° (W) 01:54:56 437.505
BEESAT 17 Aug 01:52:19 01:54:13 12° 60° (ENE) 01:56:06 436.000
SO-50 17 Aug 01:55:01 01:58:35 22° 315° (NW) 02:02:08 436.795
Gurwin Techsat 1B 17 Aug 02:04:54 02:09:27 28° 95° (E) 02:13:58 435.225
PCSat 17 Aug 02:05:32 02:08:27 14° 320° (NW) 02:11:22 145.827
DUCHIFAT 1 17 Aug 02:15:16 02:17:57 17° 295° (WNW) 02:20:38 145.980
MOZHAYETS 4 17 Aug 02:15:36 02:18:18 16° 64° (ENE) 02:20:59
ITUPSAT 1 17 Aug 02:21:24 02:25:06 23° 66° (ENE) 02:28:50 437.325
NO-84 17 Aug 02:27:04 02:29:27 23° 130° (SE) 02:31:48 435.350 FM
BUGSAT 1 17 Aug 02:33:01 02:36:39 33° 289° (WNW) 02:40:16 437.445
YUBILEINY 17 Aug 02:34:39 02:41:50 27° 67° (ENE) 02:48:56 435.215
Oscar 19 17 Aug 03:07:21 03:12:23 50° 289° (WNW) 03:17:23 437.125/150
UKube-1 17 Aug 03:08:47 03:10:39 13° 269° (W) 03:12:31 .
BEESAT 17 Aug 03:26:34 03:31:19 78° 257° (WSW) 03:36:06 436.000
Gurwin Techsat 1B 17 Aug 03:44:35 03:49:25 36° 292° (WNW) 03:54:14 435.225
MOZHAYETS 4 17 Aug 03:50:33 03:54:59 54° 260° (W) 03:59:28
ITUPSAT 1 17 Aug 03:58:18 04:02:42 38° 262° (W) 04:07:08 437.325
CUBESAT XI-V 17 Aug 03:58:31 04:02:45 36° 70° (ENE) 04:07:01 437.345
AO-7 17 Aug 04:04:18 04:12:17 47° 101° (E) 04:20:10 .
NO-84 17 Aug 04:04:21 04:06:46 24° 327° (NNW) 04:09:12 435.350 FM
ITAMSAT 1 17 Aug 04:16:55 04:21:59 52° 100° (E) 04:27:01 435.822/435.867
YUBILEINY 17 Aug 04:30:42 04:39:16 65° 268° (W) 04:47:49 435.215
KKS-1 17 Aug 04:34:16 04:38:28 41° 71° (ENE) 04:42:41 437.445
BEESAT 3 17 Aug 05:21:22 05:23:00 12° 108° (ESE) 05:24:37 437.485
STARS 17 Aug 05:25:14 05:29:34 60° 73° (ENE) 05:33:55 437.465
CUBESAT XI-V 17 Aug 05:36:35 05:40:11 22° 266° (W) 05:43:50 437.345
DOVE 4 17 Aug 05:39:45 05:43:38 26° 94° (E) 05:47:17 437.250
AO-85 17 Aug 05:45:52 05:48:03 14° 111° (ESE) 05:50:13 145.980
CUTE-I 17 Aug 05:56:34 05:58:35 12° 89° (E) 06:00:37 437.470
AO-7 17 Aug 05:57:18 06:04:53 41° 299° (WNW) 06:12:26 .
ITAMSAT 1 17 Aug 05:57:21 06:01:03 20° 297° (WNW) 06:04:43 435.822/435.867
STRAND 1 17 Aug 06:02:33 06:04:42 13° 59° (ENE) 06:06:51 437.568
KKS-1 17 Aug 06:12:03 06:15:10 18° 267° (W) 06:18:19 437.445
KAITUO 1B 17 Aug 06:26:37 06:29:21 19° 94° (E) 06:32:05 145.475/437.950
LilacSat-2 17 Aug 06:31:56 06:35:25 31° 97° (E) 06:38:53 437.200
YUBILEINY 17 Aug 06:32:37 06:34:11 11° 288° (WNW) 06:35:45 435.215
XW-2D 17 Aug 06:41:35 06:45:13 39° 98° (E) 06:48:50 145.860 - 145.880
XW-2B 17 Aug 06:52:25 06:56:10 52° 100° (E) 06:59:55 145.730 - 145.750
BEESAT 3 17 Aug 06:56:06 07:00:03 59° 305° (NW) 07:04:03 437.485
BEESAT 2 17 Aug 06:59:49 07:03:39 47° 117° (ESE) 07:07:33 435.950
STARS 17 Aug 07:04:27 07:06:16 12° 269° (W) 07:08:05 437.465
NUDT-PHONESAT 17 Aug 07:05:16 07:08:57 55° 100° (E) 07:12:38 437.300
XW-2C 17 Aug 07:11:11 07:15:02 87° 282° (WNW) 07:18:53 145.795 - 145.815
DOVE 4 17 Aug 07:17:15 07:21:18 30° 292° (WNW) 07:25:09 437.250
AO-85 17 Aug 07:24:15 07:28:02 45° 307° (NW) 07:31:49 145.980
PCSat 17 Aug 07:24:44 07:27:54 15° 41° (NE) 07:31:01 145.827
XW-2F 17 Aug 07:27:04 07:30:50 57° 285° (WNW) 07:34:35 145.980 - 146.000
CUTE-I 17 Aug 07:33:54 07:39:15 81° 286° (WNW) 07:44:33 437.470
STRAND 1 17 Aug 07:38:01 07:43:09 85° 258° (WSW) 07:48:18 437.568
XW-2A 17 Aug 07:42:38 07:44:34 14° 93° (E) 07:46:31 145.665 - 145.685
CUTE 1.7 + AOD 2 17 Aug 07:44:26 07:48:26 36° 97° (E) 07:52:24 437.475
